STARLINK-36902, 68043

Orbit data source: Space-Track

STARLINK-36902, 68043 is a payload satellite owned by SpaceX/Seattle (US) in LEO that was launched on Mon, 02 Mar 2026 UTC via an FALCON 9 launch vehicle from the Air Force Eastern Test Range (AFETR). Payload-class satellites include a variety of spacecraft equipped with specific instruments for various scientific and technological missions. These include communications satellites like Starlink; space stations such as the ISS; scientific satellites like the Hubble; Earth observation satellites from companies like Planet Labs, Umbra, and HawkEye 360; GPS; miniature CubeSats for education and research; and military/defense satellites.

Loading next visibility...
Identifier
68043, 2026-041D
Orbit
LEO
Country
Flag of USUS
Related business
Manufacturer
SpaceX/Seattle
Mission
Operational Commercial Communications
Bus & Motor
STARLINK V2MO, Unknown motor
Mass
575 kg wet, ~530 kg dry
Launch date (UTC)
2026-03-02 (2 months ago)
Launch vehicle
FALCON 9
Launch site
Air Force Eastern Test Range (AFETR)
Object type
Payload
Rocket body
Debris
Shape & HBR
Box + 2 Pan, 17.7 m
Radar Cross Section
36.964 m²

Expand to show TLE details & history
Last TLE update: 12 hours ago

TLE from 12 hours ago
0 STARLINK-36902
1 68043U 26041D   26118.89453506  .00017494  00000-0  60136-3 0  9996
2 68043  53.1597 176.7636 0001169  81.9599 278.1534 15.30201388  9074
Epoch: 2026-04-28T21:28Z
TLE epoch observation values (Epoch: 2026-04-28T21:28:07.829Z)
Latitude
-0.00004°
Longitude
-2.13235°
Altitude
475.997 km
Speed
7.629 km/s
True Right ascension
11h 47m 03s
True Declination
0° 00' 00"
Sunlit
Object was in full shadow at epoch
Visualization orbit readout
Latitude
Unknown
Longitude
Unknown
Altitude
Unknown
Speed
Unknown
Apparent Right ascension
Unknown
Apparent Declination
Unknown
Sunlit
N/A
Visualization observer readout
Local Sidereal Time
17:09:33
Azimuth
Unknown
Elevation
Unknown
Doppler factor
Unknown
Orbital elements
Apogee altitude
476.269 km
Perigee altitude
474.666 km
Semi-major axis
6,853.604 km
Eccentricity
0.00012
Inclination
53.1597°
RAAN
176.7636°
Arg. of periapsis
81.9599°
True anomaly
278.14014°
Mean anomaly
278.1534°
Eccentric anomaly
278.14677°
Mean motion
3.82529 °/min
Orbital period
94.11 mins
BSTAR
0.00060136
Loading maneuver chart data...
Computing Atmospheric mass density...
Loading historical data...
Loading historical data...
Loading historical data...
Loading historical data...
Loading historical data...
Loading historical data...
Loading historical data...

Documentation

Showing up to 5 results
|